Regional Weather Roundup
Issued by NWS

Home | Current Version | Previous Version | Text Only | Print | Product List | Glossary Off
Versions: 1 2 3 4 5 6 7 8 9 10 11 12 13 14 15 16 17 18 19 20 21 22 23 24 25 26 27 28 29 30 31 32 33 34 35 36 37 38 39 40 41 42 43 44 45 46 47 48 49 50

000
ASUS43 KLSX 201959
RWRMO

WEATHER SUMMARY FOR MISSOURI
NATIONAL WEATHER SERVICE SPRINGFIELD MO
200 PM CST SAT DEC 20 2014

NOTE: "FAIR" INDICATES FEW OR NO CLOUDS BELOW 12,000 FEET WITH NO
       SIGNIFICANT WEATHER AND/OR OBSTRUCTIONS TO VISIBILITY.
       CURRENT SKY AND/OR WEATHER CONDITIONS ARE NOT AVAILABLE FOR
       CHILLICOTHE AND FARMINGTON.

MOZ001>031-035>038-043-044-053-054-202100-
...NORTHERN AND WESTERN MISSOURI...

CITY           SKY/WX    TMP DP  RH WIND       PRES   REMARKS
KANSAS CTY INT CLOUDY    44  38  79 SW12      30.10F
KANSAS C DTWN  CLOUDY    47  38  71 S12       30.11F
LEE`S SUMMIT   CLOUDY    42  36  79 S12       30.13F
ST JOSEPH      CLOUDY    42  36  79 SW8       30.11F
CHILLICOTHE      N/A     38  34  85 S6        30.15F
KIRKSVILLE     CLOUDY    38  35  89 SW8       30.15F

$$
MOZ066>068-077>081-088>096-101>105-202100-
...SOUTHWEST MISSOURI...

CITY           SKY/WX    TMP DP  RH WIND       PRES   REMARKS
SPRINGFIELD    CLOUDY    42  36  79 S9        30.17F
JOPLIN           N/A     44  35  70 S10       30.18F

$$
MOZ032>034-039>042-045>050-055>058-069>072-202100-
...CENTRAL MISSOURI...

CITY           SKY/WX    TMP DP  RH WIND       PRES   REMARKS
COLUMBIA       CLOUDY    41  36  82 S8        30.18F
JEFFERSON CITY CLOUDY    43  35  73 SW6       30.20F
ROLLA          CLOUDY    40  34  79 SW7       30.17F
SEDALIA        CLOUDY    41  35  79 S12       30.17F
WARRENSBURG    CLOUDY    37  34  87 S10       30.17S
OSAGE BEACH    CLOUDY    43  34  70 SW10      30.18F

$$
MOZ051-052-059>065-202100-
...EAST CENTRAL MISSOURI...

CITY           SKY/WX    TMP DP  RH WIND       PRES   REMARKS
ST LOUIS INTL  CLOUDY    42  32  67 E5        30.22F
SPIRIT OF STL  CLOUDY    43  33  68 S5        30.21F
ST CHARLES     CLOUDY    41  34  76 SE7       30.21F

$$
MOZ072>076-082>087-097>100-106>115-202100-
...SOUTH CENTRAL AND SOUTHEAST MISSOURI...

CITY           SKY/WX    TMP DP  RH WIND       PRES   REMARKS
CAPE GIRARDEAU CLOUDY    43  33  68 SW3       30.24F
FARMINGTON     CLOUDY    39  34  81 S5        30.23S
POPLAR BLUFF   CLOUDY    43  31  62 CALM      30.23F
WEST PLAINS    CLOUDY    44  36  73 S3        30.19F

$$



USA.gov is the U.S. government's official web portal to all federal, state and local government web resources and services.